Location: Port Isabel Lighthouse State Historic Site
(26.0779°N, 97.2073°W)
Time: 07:15:55
(UTC-06:00)

Envisat - Visible Passes

Search period start: 14 November 2019 00:00
Search period end: 24 November 2019 00:00
Orbit: 764 x 766 km, 98.1° (Epoch: 14 November)

Date Brightness Start Highest point End Pass type
(mag) Time Alt. Az. Time Alt. Az. Time Alt. Az.
14 Nov 4.6 19:18:40 10° SSW 19:23:16 35° W 19:27:52 10° NNW visible
15 Nov 6.5 05:59:19 10° ENE 06:01:01 12° E 06:02:44 10° ESE visible
15 Nov 2.9 18:41:24 10° SSE 18:46:29 89° E 18:51:34 10° NNW visible
16 Nov 3.6 18:05:18 10° SE 18:09:52 35° ENE 18:14:25 10° N visible
16 Nov 5.7 19:45:27 10° SW 19:48:51 18° W 19:52:15 10° NW visible
17 Nov 5.8 06:22:40 10° NE 06:26:40 23° E 06:30:39 10° SSE visible
17 Nov 4.1 19:07:07 10° S 19:11:58 46° W 19:16:50 10° NNW visible
18 Nov 2.9 18:30:13 10° SSE 18:35:14 68° ENE 18:40:17 10° N visible
19 Nov 3.9 17:54:29 10° SE 17:58:40 27° ENE 18:02:51 10° NNE visible
19 Nov 5.3 19:33:30 10° SSW 19:37:31 24° W 19:41:34 10° NW visible
20 Nov 6.0 06:11:59 10° NE 06:15:21 18° E 06:18:41 10° SE visible
20 Nov 3.5 18:55:41 10° S 19:00:41 62° W 19:05:43 10° NNW visible
21 Nov 3.1 18:19:07 10° SSE 18:24:00 51° ENE 18:28:54 10° N visible
21 Nov 6.2 20:01:20 10° WSW 20:03:09 12° W 20:04:59 10° WNW visible
22 Nov 4.8 19:21:45 10° SSW 19:26:13 31° W 19:30:42 10° NW visible
23 Nov 6.3 06:01:40 10° ENE 06:04:00 13° E 06:06:21 10° ESE visible
23 Nov 3.0 18:44:22 10° S 18:49:25 82° WSW 18:54:31 10° NNW visible
